| time (UTC) | temp C | wind direction | speed KPH | gust KPH | rain 1hr cm | rain 24hr cm | rain mn cm | humidity % | barometer mb |
| 20260506044553 | 17 | 176 | 3.2 | 17.7 | 0.00 | 0.00 | 0.00 | 87 | 1014.5 |
| 20260506043052 | 17 | 147 | 3.2 | 14.5 | 0.00 | 0.00 | 0.00 | 86 | 1014.4 |
| 20260506041606 | 17 | 18 | 3.2 | 11.3 | 0.00 | 0.00 | 0.00 | 87 | 1014.3 |
| 20260506040058 | 17 | 104 | 3.2 | 9.7 | 0.00 | 0.00 | 0.00 | 87 | 1014.4 |
| 20260506034550 | 17 | 195 | 4.8 | 11.3 | 0.00 | 0.00 | 0.00 | 88 | 1014.4 |
| 20260506033051 | 17 | 130 | 1.6 | 9.7 | 0.00 | 0.00 | 0.00 | 88 | 1014.4 |
| 20260506031557 | 17 | 205 | 1.6 | 6.4 | 0.00 | 0.00 | 0.00 | 88 | 1014.4 |
| 20260506030053 | 17 | 140 | 1.6 | 9.7 | 0.00 | 0.00 | 0.00 | 88 | 1014.5 |
| 20260506024553 | 17 | 0 | 1.6 | 6.4 | 0.00 | 0.00 | 0.00 | 88 | 1014.5 |
| 20260506023106 | 17 | 148 | 3.2 | 8.0 | 0.00 | 0.00 | 0.00 | 88 | 1014.7 |
| 20260506021609 | 17 | 219 | 3.2 | 6.4 | 0.00 | 0.00 | 0.00 | 87 | 1014.7 |
| 20260506020052 | 17 | 86 | 1.6 | 6.4 | 0.00 | 0.00 | 0.00 | 87 | 1014.5 |
| 20260506014553 | 17 | 143 | 1.6 | 6.4 | 0.00 | 0.00 | 0.00 | 86 | 1014.6 |
| 20260506013100 | 17 | 153 | 3.2 | 11.3 | 0.00 | 0.00 | 0.00 | 85 | 1014.4 |
| 20260506011611 | 17 | 164 | 4.8 | 11.3 | 0.00 | 0.00 | 0.00 | 85 | 1014.2 |
| 20260506010058 | 17 | 177 | 3.2 | 17.7 | 0.00 | 0.00 | 0.00 | 84 | 1014.1 |
| 20260506004555 | 17 | 166 | 3.2 | 17.7 | 0.00 | 0.00 | 0.00 | 84 | 1013.9 |
| 20260506003054 | 17 | 217 | 4.8 | 14.5 | 0.00 | 0.00 | 0.00 | 84 | 1013.8 |
| 20260506001555 | 17 | 162 | 3.2 | 11.3 | 0.00 | 0.00 | 0.00 | 85 | 1013.5 |
| 20260506000051 | 17 | 167 | 3.2 | 12.9 | 0.00 | 0.00 | 0.00 | 84 | 1013.5 |
| 20260505234552 | 17 | 129 | 3.2 | 9.7 | 0.00 | 0.00 | 0.00 | 84 | 1013.5 |
| 20260505233100 | 18 | 145 | 4.8 | 14.5 | 0.00 | 0.00 | 0.00 | 84 | 1013.3 |
| 20260505231609 | 18 | 0 | 3.2 | 9.7 | 0.00 | 0.00 | 0.00 | 83 | 1013.2 |
| 20260505230052 | 18 | 155 | 3.2 | 19.3 | 0.00 | 0.00 | 0.00 | 82 | 1013.3 |
| 20260505224556 | 18 | 147 | 6.4 | 14.5 | 0.00 | 0.00 | 0.00 | 81 | 1013.3 |
| 20260505223052 | 19 | 127 | 3.2 | 19.3 | 0.00 | 0.00 | 0.00 | 80 | 1013.1 |
| 20260505221553 | 19 | 72 | 4.8 | 16.1 | 0.00 | 0.00 | 0.00 | 78 | 1013.1 |
| 20260505220059 | 20 | 237 | 3.2 | 9.7 | 0.00 | 0.00 | 0.00 | 76 | 1013.1 |
| 20260505214558 | 20 | 101 | 4.8 | 9.7 | 0.00 | 0.00 | 0.00 | 74 | 1013.2 |
| 20260505213050 | 21 | 198 | 3.2 | 14.5 | 0.00 | 0.00 | 0.00 | 74 | 1013.0 |
| 20260505211552 | 21 | 46 | 4.8 | 14.5 | 0.00 | 0.00 | 0.00 | 73 | 1013.2 |
| 20260505210058 | 21 | 125 | 3.2 | 9.7 | 0.00 | 0.00 | 0.00 | 72 | 1013.2 |
| 20260505204555 | 21 | 154 | 4.8 | 14.5 | 0.00 | 0.00 | 0.00 | 72 | 1013.2 |
| 20260505203117 | 22 | 133 | 6.4 | 17.7 | 0.00 | 0.00 | 0.00 | 71 | 1013.4 |
| 20260505201603 | 22 | 213 | 3.2 | 12.9 | 0.00 | 0.00 | 0.00 | 69 | 1013.4 |
| 20260505200057 | 22 | 87 | 4.8 | 20.9 | 0.00 | 0.00 | 0.00 | 71 | 1013.7 |
| 20260505194558 | 22 | 341 | 3.2 | 14.5 | 0.00 | 0.00 | 0.00 | 71 | 1013.7 |
| 20260505193053 | 21 | 94 | 4.8 | 22.5 | 0.00 | 0.00 | 0.00 | 72 | 1013.7 |
| 20260505191603 | 21 | 228 | 4.8 | 14.5 | 0.00 | 0.00 | 0.00 | 72 | 1013.9 |
| 20260505190057 | 21 | 164 | 8.0 | 19.3 | 0.00 | 0.00 | 0.00 | 73 | 1014.0 |
| 20260505184557 | 21 | 176 | 3.2 | 16.1 | 0.00 | 0.00 | 0.00 | 73 | 1014.2 |
| 20260505183052 | 21 | 94 | 4.8 | 11.3 | 0.00 | 0.00 | 0.00 | 74 | 1014.1 |
| 20260505181552 | 21 | 127 | 4.8 | 11.3 | 0.00 | 0.00 | 0.00 | 74 | 1014.3 |
| 20260505180057 | 22 | 90 | 4.8 | 14.5 | 0.00 | 0.00 | 0.00 | 73 | 1014.4 |
| 20260505174555 | 21 | 106 | 4.8 | 20.9 | 0.00 | 0.00 | 0.00 | 74 | 1014.3 |
| 20260505173057 | 21 | 69 | 4.8 | 16.1 | 0.00 | 0.00 | 0.00 | 74 | 1014.3 |
| 20260505171556 | 21 | 148 | 4.8 | 9.7 | 0.00 | 0.00 | 0.00 | 75 | 1014.3 |
| 20260505170109 | 21 | 180 | 4.8 | 11.3 | 0.00 | 0.00 | 0.00 | 74 | 1014.4 |
| 20260505164559 | 21 | 176 | 4.8 | 14.5 | 0.00 | 0.00 | 0.00 | 75 | 1014.4 |
| 20260505163053 | 21 | 160 | 4.8 | 16.1 | 0.00 | 0.00 | 0.00 | 76 | 1014.5 |
| 20260505161614 | 22 | 89 | 3.2 | 9.7 | 0.00 | 0.00 | 0.00 | 73 | 1014.5 |
| 20260505153103 | 21 | 151 | 1.6 | 8.0 | 0.00 | 0.00 | 0.00 | 76 | 1014.7 |
| 20260505151603 | 21 | 159 | 1.6 | 9.7 | 0.00 | 0.00 | 0.00 | 74 | 1014.7 |
| 20260505124554 | 17 | 127 | 0.0 | 8.0 | 0.00 | 0.00 | 0.00 | 82 | 1014.5 |
| 20260505123051 | 16 | 139 | 0.0 | 6.4 | 0.00 | 0.00 | 0.00 | 82 | 1014.4 |
| 20260505121613 | 15 | 136 | 1.6 | 4.8 | 0.00 | 0.00 | 0.00 | 85 | 1014.3 |
| 20260505120055 | 15 | 0 | 0.0 | 3.2 | 0.00 | 0.00 | 0.00 | 88 | 1014.3 |
| 20260505114554 | 14 | 144 | 0.0 | 3.2 | 0.00 | 0.00 | 0.00 | 90 | 1014.4 |
| 20260505113053 | 13 | 0 | 0.0 | 0.0 | 0.00 | 0.00 | 0.00 | 92 | 1014.4 |
| 20260505111552 | 13 | 0 | 0.0 | 0.0 | 0.00 | 0.00 | 0.00 | 93 | 1014.6 |
| 20260505101556 | 12 | 0 | 0.0 | 0.0 | 0.00 | 0.00 | 0.00 | 94 | 1013.9 |
| 20260505100059 | 12 | 0 | 0.0 | 3.2 | 0.00 | 0.00 | 0.00 | 94 | 1013.8 |
| 20260505094552 | 12 | 0 | 0.0 | 0.0 | 0.00 | 0.00 | 0.00 | 95 | 1013.6 |
| 20260505093057 | 12 | 0 | 0.0 | 0.0 | 0.00 | 0.00 | 0.00 | 95 | 1013.6 |
| 20260505091554 | 13 | 0 | 0.0 | 1.6 | 0.00 | 0.00 | 0.00 | 95 | 1013.4 |
| 20260505090105 | 12 | 0 | 0.0 | 0.0 | 0.00 | 0.00 | 0.00 | 95 | 1013.4 |
| 20260505084554 | 12 | 0 | 0.0 | 0.0 | 0.00 | 0.00 | 0.00 | 94 | 1013.4 |
| 20260505083100 | 13 | 0 | 0.0 | 1.6 | 0.00 | 0.00 | 0.00 | 94 | 1013.4 |
| 20260505081559 | 13 | 0 | 0.0 | 0.0 | 0.00 | 0.00 | 0.00 | 93 | 1013.5 |
| 20260505080049 | 13 | 0 | 0.0 | 1.6 | 0.00 | 0.00 | 0.00 | 93 | 1013.5 |
| 20260505074552 | 13 | 0 | 0.0 | 1.6 | 0.00 | 0.00 | 0.00 | 92 | 1013.5 |
| 20260505073053 | 13 | 0 | 0.0 | 1.6 | 0.00 | 0.00 | 0.00 | 93 | 1013.4 |
| 20260505071554 | 13 | 114 | 0.0 | 1.6 | 0.00 | 0.00 | 0.00 | 93 | 1013.4 |
| 20260505070051 | 14 | 0 | 0.0 | 3.2 | 0.00 | 0.00 | 0.00 | 93 | 1013.4 |
| 20260505064554 | 14 | 0 | 0.0 | 6.4 | 0.00 | 0.00 | 0.00 | 93 | 1013.3 |
| 20260505063056 | 14 | 129 | 0.0 | 1.6 | 0.00 | 0.00 | 0.00 | 93 | 1013.5 |
| 20260505061600 | 14 | 132 | 0.0 | 3.2 | 0.00 | 0.00 | 0.00 | 93 | 1013.4 |
| 20260505060059 | 14 | 142 | 0.0 | 3.2 | 0.00 | 0.00 | 0.00 | 94 | 1013.4 |
| 20260505054558 | 14 | 0 | 0.0 | 0.0 | 0.00 | 0.00 | 0.00 | 93 | 1013.5 |
| 20260505053107 | 14 | 0 | 0.0 | 0.0 | 0.00 | 0.00 | 0.00 | 93 | 1013.4 |
| 20260505051558 | 14 | 0 | 0.0 | 0.0 | 0.00 | 0.00 | 0.00 | 93 | 1013.4 |